Location: Loup Canal
(41.4930°N, 97.5670°W)
Time: 17:50:13
(UTC-05:00)

Daily predictions for brighter satellites

Satellite Brightness Start Highest point End
(mag) Time Altitude Azimuth Time Altitude Azimuth Time Altitude Azimuth
Cosmos 1378 3.4 19:48:23 10° N 19:52:04 48° E 19:55:43 10° SSE
Cosmos 1271 Rocket 3.6 19:57:47 10° SSW 20:01:29 53° WNW 20:05:15 10° N
Envisat 4.5 19:58:33 10° ESE 20:01:50 18° ENE 20:05:07 10° NNE
Geosat 4.0 19:57:04 10° SE 20:02:02 64° ENE 20:07:01 10° NNW
ALOS 2.2 19:58:06 10° SSE 20:02:46 81° ENE 20:07:27 10° N
ATLAS CENTAUR R/B 3.8 19:47:52 10° NW 20:04:21 76° NE 20:09:35 10° SE
USA 81 4.0 20:02:36 10° N 20:07:54 70° E 20:13:09 10° SSE
COSMO-SKYMED 1 3.8 20:03:48 10° N 20:07:59 48° WNW 20:12:09 10° SW
Cosmos 2150 Rocket 4.2 20:03:28 10° NNW 20:08:50 81° WSW 20:14:14 10° SSE
ATLAS 2AS CENTAUR R/B 4.4 20:07:51 10° NNW 20:14:02 23° NNE 20:19:38 11° ENE
Cosmos 1758 Rocket 4.1 20:09:45 10° NNW 20:14:13 65° W 20:18:39 10° S
FREGAT/IRIS 2.5 20:11:57 10° SSE 20:14:56 67° ENE 20:17:58 10° N
Cosmos 1340 Rocket 3.8 20:12:43 10° NNW 20:16:41 51° W 20:20:37 10° S
Cosmos 389 Rocket 4.2 20:13:42 10° SW 20:16:57 36° WNW 20:20:13 10° N
Cosmos 841 Rocket 3.4 20:13:14 10° SSW 20:18:22 84° ESE 20:23:32 10° NNE
Cosmos 1726 Rocket 4.1 20:14:25 10° SSW 20:18:43 61° W 20:23:02 10° N
Cosmos 1805 4.3 20:16:09 10° SE 20:19:19 24° E 20:22:29 10° NE
Cosmos 2181 Rocket 4.3 20:14:38 10° NNW 20:20:48 72° W 20:26:53 10° S
Cosmos 1937 Rocket 4.3 20:17:27 10° NNW 20:22:38 54° WSW 20:27:43 10° S
NOSS 3-1 (A) 4.1 20:16:51 10° NNW 20:24:28 73° NE 20:32:55 10° SE
Cosmos 2084 4.1 20:20:38 10° SW 20:24:36 51° NW 20:28:25 10° NNE
SL-27 R/B 4.5 20:23:07 10° SE 20:30:14 - NE 20:23:47 13° SE
CZ-2D R/B 3.9 20:23:20 14° SE 20:26:13 34° ENE 20:29:42 10° N
Resurs 1-3 4.4 20:28:08 17° ESE 20:30:48 32° ENE 20:34:43 10° N
Cosmos 2154 Rocket 4.4 20:26:18 10° SSE 20:31:58 39° E 20:37:43 10° NNE
NOSS 3-1 (C) 4.2 20:25:24 10° NW 20:33:04 81° WSW 20:41:33 10° SSE
HJ-1C 3.2 20:30:27 10° SSE 20:33:47 74° ENE 20:37:09 10° N
Cosmos 2074 Rocket 3.9 20:27:51 10° S 20:34:03 79° E 20:40:16 10° N
Cosmos 540 Rocket 3.4 20:30:03 10° S 20:35:02 58° ESE 20:40:04 10° NNE
Cosmos 1943 Rocket 4.1 20:31:09 10° NW 20:35:57 30° WSW 20:40:47 10° SSW
Cosmos 1763 Rocket 4.5 20:32:44 10° SW 20:37:40 49° WNW 20:42:43 10° N
Meteor 1-24 Rocket 3.8 20:36:57 10° N 20:42:57 89° ENE 20:48:44 10° S
Cosmos 2228 4.1 20:39:58 10° SSW 20:44:11 48° W 20:48:24 10° N
SJ-6B 3.2 20:44:31 10° S 20:48:30 66° W 20:52:25 10° NNW
Cosmos 1953 3.2 20:53:14 31° ENE 20:53:14 31° ENE 20:56:10 10° NNE
FALCON 9 R/B 2.5 20:50:15 10° WSW 20:53:13 36° S 20:55:16 27° SE
Cosmos 1697 Rocket 4.3 20:49:50 10° N 20:53:25 17° NE 20:54:10 16° ENE
Cosmos 1980 Rocket 4.3 20:53:06 10° NNE 20:54:26 11° NE 20:55:07 11° NE
Resurs 01 Rocket 1.6 20:51:54 23° SSE 20:54:33 62° ENE 20:58:56 10° N
Cosmos 1356 Rocket 4.5 20:52:07 10° NNW 20:56:17 49° W 21:00:26 10° S
GP-B 3.1 20:53:36 10° N 20:58:00 60° E 21:01:04 19° SSE
Cosmos 1812 Rocket 3.4 20:53:49 10° S 20:58:14 74° E 21:02:43 10° NNE
H-2A R/B 4.1 20:56:35 10° SSW 21:00:05 39° W 21:03:37 10° NNW
Nadezhda 3 Rocket 3.9 20:56:35 10° N 21:02:52 66° E 21:07:52 16° SSE
USA 186 4.0 21:08:09 12° N 21:08:09 12° N 21:08:26 10° N
Meteor 2-8 Rocket 4.5 21:00:14 10° N 21:06:23 82° W 21:12:28 10° S
Spot 2 Rocket 3.4 21:05:05 26° SSE 21:07:56 74° ENE 21:12:58 10° N
Cosmos 2285 Rocket 4.4 21:06:20 10° SSE 21:12:13 40° E 21:18:09 10° NE
Cosmos 292 Rocket 3.6 21:12:47 10° S 21:17:35 67° ESE 21:22:25 10° NNE
YAOGAN 6 4.5 21:20:27 21° NNE 21:20:27 21° NNE 21:21:53 10° N
Meteor 2-19 Rocket 4.5 21:12:44 10° S 21:18:47 79° W 21:24:53 10° N
ISS -2.1 21:18:09 10° SW 21:19:46 26° SW 21:19:46 26° SW
Okean 3 Rocket 3.8 21:20:30 10° N 21:24:21 55° NE 21:24:21 55° NE
Cosmos 1295 Rocket 4.3 21:21:26 22° SSE 21:25:28 64° E 21:31:29 10° NNE
Cosmos 783 Rocket 4.4 21:21:19 10° SSW 21:26:32 90° W 21:31:45 10° NNE
COSMOS 2406 4.3 21:22:16 10° SW 21:27:43 45° WNW 21:33:14 10° NNE
Cosmos 1356 4.4 21:26:29 10° NNW 21:29:49 44° W 21:30:00 44° WSW
ERS-1 Rocket 4.4 21:32:02 24° NE 21:32:02 24° NE 21:34:42 10° N
Cosmos 1809 Rocket 4.4 21:30:54 51° SE 21:32:02 60° E 21:38:03 10° NNE
Cosmos 1674 3.5 21:30:14 10° N 21:32:59 46° NNW 21:32:59 46° NNW
Cosmos 1125 Rocket 4.4 21:29:04 10° NNW 21:34:08 47° WSW 21:37:25 21° SSW
SL-8 Rocket 4.0 21:35:30 55° E 21:35:30 55° E 21:41:19 10° NNE
Cosmos 1758 3.9 21:35:13 36° SW 21:36:32 55° W 21:40:29 10° N
MOS 1-B Rocket 4.2 21:33:42 19° S 21:38:10 66° WSW 21:43:49 10° NNW
Envisat 3.4 21:38:12 33° SSW 21:40:21 60° W 21:45:24 10° NNW
Cosmos 2369 3.7 21:35:41 10° NNW 21:41:12 62° ENE 21:41:12 62° ENE
BREEZE M DEB (TANK) 4.3 21:37:55 10° WNW 21:41:48 27° WSW 21:41:48 27° WSW
Meteor 1-21 Rocket 4.2 21:37:45 10° NNW 21:43:31 78° W 21:45:01 50° S
Cosmos 1939 Rocket 4.1 21:50:47 39° NW 21:50:47 39° NW 21:53:27 10° NNW
Meteor 2-15 4.2 21:43:51 10° N 21:49:55 75° E 21:49:59 75° E
H-2A R/B 4.0 21:59:17 17° NNE 21:59:17 17° NNE 22:00:42 10° N
BREEZE-M DEB (TANK) 4.3 21:43:31 10° W 22:01:07 50° N 22:02:50 40° NE
ATLAS 2AS CENTAUR R/B 2.9 21:58:37 10° NNW 22:06:38 69° NE 22:07:05 67° ENE
Cosmos 2278 4.1 22:10:14 10° NNW 22:15:00 61° NW 22:15:00 61° NW
Cosmos 2322 Rocket 4.4 22:24:44 10° N 22:26:13 15° NNE 22:26:13 15° NNE
Cosmos 1697 Rocket 3.9 22:32:26 10° NNW 22:35:53 39° NNW 22:35:53 39° NNW
Cosmos 1980 Rocket 3.7 22:34:04 10° NNW 22:36:53 30° N 22:36:53 30° N
SL-16 R/B 4.4 23:01:27 10° N 23:02:59 18° N 23:02:59 18° N
